Tracking 33744 objects as of 14-Apr-2026
HD Live streaming from Space Station
objects crossing your sky now

STARLINK-36787

Track STARLINK-36787 now!
10-day predictions
STARLINK-36787 is classified as:


NORAD ID: 68094
Int'l Code: 2026-042AB
Perigee: 350.5 km
Apogee: 351.5 km
Inclination: 53.2 °
Period: 91.4 minutes
Semi major axis: 6721 km
RCS: Unknown
Launch date: March 4, 2026
Source: United States (US)
Launch site: AIR FORCE EASTERN TEST RANGE (AFETR)
Your satellite tracking list
Your tracking list is empty




NASA's NSSDC Master Catalog

Two Line Element Set (TLE):
1 68094U 26042AB  26104.17286670  .00166831  00000-0  10689-2 0  9992
2 68094  53.1593  17.8036 0000742  80.5065 279.6039 15.75286441  7676
Source of the keplerian elements: AFSPC